When you browse on this site, cookies collect data to enhance your experience and personalize the content and advertising you see.
Visit our Privacy Policy to learn more. By continuing to use the site, you agree to this use of cookies and data.
  • în România
  • Lista ţărilor
  • Pe 7 zile
  • Temperatura apei
  • Hartă satelitară
  • Meteo pe hartă
  • Widget-uri
  • user-avatar
    Intrare

    Meteo pe oră la Barra

    Astăzi, 20 Mai, Luni

    Timp Temperatura Precipitaţii Vânt Presiune Umiditate
    00:00 +28°C° 0 mm 6 m/s 759 mmHg 42%
    01:00 +27°C° 0 mm 6 m/s 758 mmHg 43%
    02:00 +27°C° 0 mm 6 m/s 758 mmHg 45%
    03:00 +26°C° 0 mm 5 m/s 758 mmHg 46%
    04:00 +26°C° 0 mm 5 m/s 758 mmHg 48%
    05:00 +26°C° 0 mm 3 m/s 758 mmHg 50%
    06:00 +26°C° 0 mm 3 m/s 758 mmHg 49%
    07:00 +27°C° 0 mm 3 m/s 759 mmHg 47%
    08:00 +27°C° 0 mm 3 m/s 759 mmHg 45%
    09:00 +29°C° 0 mm 3 m/s 759 mmHg 39%
    10:00 +31°C° 0 mm 3 m/s 759 mmHg 33%
    11:00 +34°C° 0 mm 3 m/s 759 mmHg 28%
    12:00 +35°C° 0 mm 4 m/s 758 mmHg 28%
    13:00 +36°C° 0 mm 4 m/s 758 mmHg 29%
    14:00 +36°C° 0 mm 5 m/s 757 mmHg 29%
    15:00 +35°C° 0 mm 6 m/s 757 mmHg 36%
    16:00 +33°C° 0 mm 6 m/s 757 mmHg 43%
    17:00 +30°C° 0 mm 6 m/s 756 mmHg 51%
    18:00 +29°C° 0 mm 6 m/s 757 mmHg 53%
    19:00 +28°C° 0 mm 6 m/s 757 mmHg 55%
    20:00 +28°C° 0 mm 6 m/s 758 mmHg 57%
    21:00 +27°C° 0 mm 6 m/s 758 mmHg 56%
    22:00 +27°C° 0 mm 6 m/s 758 mmHg 55%
    23:00 +27°C° 0 mm 6 m/s 759 mmHg 55%

    Mâine, 21 Mai, Marţi

    Timp Temperatura Precipitaţii Vânt Presiune Umiditate
    00:00 +27°C° 0 mm 6 m/s 759 mmHg 55%
    01:00 +27°C° 0 mm 5 m/s 758 mmHg 55%
    02:00 +27°C° 0 mm 5 m/s 758 mmHg 55%
    03:00 +27°C° 0 mm 5 m/s 758 mmHg 55%
    04:00 +26°C° 0 mm 4 m/s 758 mmHg 55%
    05:00 +26°C° 0 mm 3 m/s 758 mmHg 56%
    06:00 +27°C° 0 mm 3 m/s 758 mmHg 52%
    07:00 +28°C° 0 mm 3 m/s 758 mmHg 48%
    08:00 +29°C° 0 mm 3 m/s 759 mmHg 43%
    09:00 +31°C° 0 mm 3 m/s 759 mmHg 38%
    10:00 +34°C° 0 mm 3 m/s 759 mmHg 32%
    11:00 +36°C° 0 mm 3 m/s 758 mmHg 26%
    12:00 +36°C° 0 mm 4 m/s 758 mmHg 27%
    13:00 +37°C° 0 mm 5 m/s 757 mmHg 27%
    14:00 +38°C° 0 mm 6 m/s 757 mmHg 28%
    15:00 +35°C° 0 mm 6 m/s 756 mmHg 34%
    16:00 +34°C° 0 mm 7 m/s 756 mmHg 40%
    17:00 +32°C° 0 mm 7 m/s 756 mmHg 46%
    18:00 +30°C° 0 mm 7 m/s 756 mmHg 48%
    19:00 +29°C° 0 mm 7 m/s 757 mmHg 50%
    20:00 +29°C° 0 mm 7 m/s 757 mmHg 51%
    21:00 +28°C° 0 mm 7 m/s 758 mmHg 52%
    22:00 +28°C° 0 mm 6 m/s 758 mmHg 53%
    23:00 +28°C° 0 mm 6 m/s 759 mmHg 54%

    Poimâine, 22 Mai, Miercuri

    Timp Temperatura Precipitaţii Vânt Presiune Umiditate
    00:00 +27°C° 0 mm 6 m/s 758 mmHg 54%
    01:00 +27°C° 0 mm 5 m/s 758 mmHg 54%
    02:00 +27°C° 0 mm 5 m/s 757 mmHg 54%
    03:00 +27°C° 0 mm 4 m/s 757 mmHg 55%
    04:00 +26°C° 0 mm 4 m/s 757 mmHg 55%
    05:00 +26°C° 0 mm 4 m/s 757 mmHg 55%
    06:00 +27°C° 0 mm 4 m/s 757 mmHg 50%
    07:00 +28°C° 0 mm 4 m/s 758 mmHg 46%
    08:00 +29°C° 0 mm 4 m/s 758 mmHg 41%
    09:00 +32°C° 0 mm 4 m/s 758 mmHg 35%
    10:00 +35°C° 0 mm 4 m/s 758 mmHg 30%
    11:00 +37°C° 0 mm 4 m/s 758 mmHg 24%
    12:00 +37°C° 0 mm 5 m/s 758 mmHg 25%
    13:00 +39°C° 0 mm 5 m/s 757 mmHg 26%
    14:00 +39°C° 0 mm 6 m/s 756 mmHg 27%
    15:00 +38°C° 0 mm 7 m/s 756 mmHg 30%
    16:00 +35°C° 0 mm 7 m/s 756 mmHg 33%
    17:00 +34°C° 0 mm 7 m/s 755 mmHg 36%
    18:00 +34°C° 0 mm 7 m/s 756 mmHg 36%
    19:00 +33°C° 0 mm 7 m/s 756 mmHg 36%
    20:00 +32°C° 0 mm 7 m/s 757 mmHg 36%
    21:00 +30°C° 0 mm 7 m/s 757 mmHg 39%
    22:00 +29°C° 0 mm 7 m/s 757 mmHg 41%
    23:00 +29°C° 0 mm 6 m/s 758 mmHg 44%

    23 Mai, Joi

    Timp Temperatura Precipitaţii Vânt Presiune Umiditate
    00:00 +28°C° 0 mm 6 m/s 757 mmHg 45%
    01:00 +28°C° 0 mm 6 m/s 757 mmHg 47%
    02:00 +27°C° 0 mm 5 m/s 756 mmHg 48%
    03:00 +27°C° 0 mm 5 m/s 756 mmHg 48%
    04:00 +27°C° 0 mm 5 m/s 756 mmHg 49%
    05:00 +26°C° 0 mm 5 m/s 756 mmHg 49%
    06:00 +27°C° 0 mm 5 m/s 757 mmHg 46%
    07:00 +28°C° 0 mm 5 m/s 757 mmHg 43%
    08:00 +29°C° 0 mm 5 m/s 758 mmHg 40%
    09:00 +32°C° 0 mm 4 m/s 758 mmHg 34%
    10:00 +34°C° 0 mm 3 m/s 758 mmHg 29%
    11:00 +36°C° 0 mm 3 m/s 758 mmHg 24%
    12:00 +37°C° 0 mm 3 m/s 757 mmHg 24%
    13:00 +38°C° 0 mm 4 m/s 756 mmHg 25%
    14:00 +40°C° 0 mm 5 m/s 756 mmHg 25%
    15:00 +38°C° 0 mm 6 m/s 755 mmHg 31%
    16:00 +35°C° 0 mm 7 m/s 755 mmHg 37%
    17:00 +33°C° 0 mm 7 m/s 755 mmHg 43%
    18:00 +32°C° 0 mm 7 m/s 755 mmHg 44%
    19:00 +30°C° 0 mm 7 m/s 756 mmHg 46%
    20:00 +30°C° 0 mm 7 m/s 757 mmHg 47%
    21:00 +29°C° 0 mm 7 m/s 757 mmHg 48%
    22:00 +28°C° 0 mm 6 m/s 757 mmHg 49%
    23:00 +28°C° 0 mm 6 m/s 757 mmHg 50%

    24 Mai, Vineri

    Timp Temperatura Precipitaţii Vânt Presiune Umiditate
    00:00 +27°C° 0 mm 6 m/s 757 mmHg 51%
    01:00 +27°C° 0 mm 5 m/s 756 mmHg 52%
    02:00 +27°C° 0 mm 4 m/s 756 mmHg 53%
    03:00 +26°C° 0 mm 4 m/s 756 mmHg 55%
    04:00 +26°C° 0 mm 4 m/s 756 mmHg 57%
    05:00 +26°C° 0 mm 3 m/s 756 mmHg 59%
    06:00 +26°C° 0 mm 2 m/s 757 mmHg 55%
    07:00 +27°C° 0 mm 2 m/s 757 mmHg 52%
    08:00 +28°C° 0 mm 1 m/s 758 mmHg 48%
    09:00 +30°C° 0 mm 1 m/s 758 mmHg 43%
    10:00 +32°C° 0 mm 1 m/s 758 mmHg 37%
    11:00 +34°C° 0 mm 1 m/s 758 mmHg 31%
    12:00 +35°C° 0 mm 3 m/s 757 mmHg 31%
    13:00 +36°C° 0 mm 4 m/s 757 mmHg 30%
    14:00 +37°C° 0 mm 5 m/s 756 mmHg 29%
    15:00 +35°C° 0 mm 6 m/s 756 mmHg 37%
    16:00 +33°C° 0 mm 6 m/s 755 mmHg 45%
    17:00 +30°C° 0 mm 7 m/s 755 mmHg 53%
    18:00 +29°C° 0 mm 6 m/s 756 mmHg 55%
    19:00 +28°C° 0 mm 6 m/s 756 mmHg 57%
    20:00 +27°C° 0 mm 6 m/s 757 mmHg 59%
    21:00 +27°C° 0 mm 6 m/s 757 mmHg 60%
    22:00 +27°C° 0 mm 5 m/s 757 mmHg 61%
    23:00 +27°C° 0 mm 5 m/s 757 mmHg 62%

    25 Mai, Sâmbătă

    Timp Temperatura Precipitaţii Vânt Presiune Umiditate
    00:00 +26°C° 0 mm 5 m/s 757 mmHg 64%
    01:00 +26°C° 0 mm 4 m/s 756 mmHg 66%
    02:00 +26°C° 0 mm 4 m/s 756 mmHg 68%
    03:00 +25°C° 0 mm 3 m/s 756 mmHg 69%
    04:00 +25°C° 0 mm 3 m/s 757 mmHg 71%
    05:00 +25°C° 0 mm 2 m/s 757 mmHg 72%
    06:00 +26°C° 0 mm 2 m/s 757 mmHg 68%
    07:00 +26°C° 0 mm 1 m/s 758 mmHg 63%
    08:00 +27°C° 0 mm 1 m/s 758 mmHg 59%
    09:00 +29°C° 0 mm 1 m/s 758 mmHg 51%
    10:00 +31°C° 0 mm 2 m/s 758 mmHg 43%
    11:00 +34°C° 0 mm 2 m/s 758 mmHg 35%
    12:00 +35°C° 0 mm 3 m/s 758 mmHg 33%
    13:00 +36°C° 0 mm 4 m/s 757 mmHg 31%
    14:00 +37°C° 0 mm 5 m/s 756 mmHg 29%
    15:00 +35°C° 0 mm 5 m/s 756 mmHg 35%
    16:00 +34°C° 0 mm 6 m/s 756 mmHg 41%
    17:00 +32°C° 0 mm 7 m/s 756 mmHg 47%
    18:00 +30°C° 0 mm 6 m/s 756 mmHg 51%
    19:00 +29°C° 0 mm 6 m/s 757 mmHg 56%
    20:00 +27°C° 0 mm 6 m/s 757 mmHg 60%
    21:00 +27°C° 0 mm 6 m/s 758 mmHg 60%
    22:00 +27°C° 0 mm 5 m/s 758 mmHg 61%
    23:00 +27°C° 0 mm 5 m/s 758 mmHg 61%
    Arată mai mult